Time,TemperatureF,DewpointF,PressureIn,WindDirection,WindDirectionDegrees,WindSpeedMPH,WindSpeedGustMPH,Humidity,HourlyPrecipIn,Conditions,Clouds,dailyrainin,SoftwareType,DateUTC
2013-05-30 22:19:00,60.1,55.6,30.03,NE,45,0.0,0.0,85,0.00,,---,0.00,VWS V14.01,2013-05-31 02:19:00,
2013-05-30 22:23:00,60.1,55.6,29.97,NE,45,0.0,0.0,85,0.00,,---,82.22,VWS V14.01,2013-05-31 02:23:00,
2013-05-30 22:25:00,68.9,57.5,29.97,NE,45,0.0,0.0,67,0.00,,---,82.22,VWS V14.01,2013-05-31 02:25:00,
2013-05-30 22:27:00,60.1,55.6,30.03,NE,45,0.0,0.0,85,0.00,,---,0.00,VWS V14.01,2013-05-31 02:27:00,
2013-05-30 22:28:00,68.9,57.5,29.97,NE,45,0.0,0.0,67,0.00,,---,82.22,VWS V14.01,2013-05-31 02:28:00,
2013-05-30 22:29:00,60.1,55.6,29.97,NE,45,0.0,0.0,85,0.00,,---,82.22,VWS V14.01,2013-05-31 02:29:00,
2013-05-30 22:30:00,68.9,57.5,29.97,NE,45,0.0,0.0,67,0.00,,---,82.22,VWS V14.01,2013-05-31 02:30:00,
2013-05-30 22:31:00,68.9,57.5,29.97,NE,45,0.0,0.0,67,0.00,,---,82.22,VWS V14.01,2013-05-31 02:31:00,
2013-05-30 22:32:00,68.9,57.5,29.97,NE,45,0.0,0.0,67,0.00,,---,82.22,VWS V14.01,2013-05-31 02:32:00,
2013-05-30 22:33:00,68.9,57.5,29.97,NE,45,0.0,0.0,67,0.00,,---,82.22,VWS V14.01,2013-05-31 02:33:00,
2013-05-30 22:34:00,68.7,57.7,29.97,NE,45,0.0,0.0,68,0.00,,---,82.22,VWS V14.01,2013-05-31 02:34:00,
2013-05-30 22:35:00,68.5,58.0,29.97,NE,45,0.0,0.0,69,0.00,,---,82.22,VWS V14.01,2013-05-31 02:35:00,
2013-05-30 22:36:00,68.5,58.0,29.97,NE,45,0.0,0.0,69,0.00,,---,82.22,VWS V14.01,2013-05-31 02:36:00,
2013-05-30 22:37:00,68.9,57.5,29.97,NE,45,0.0,0.0,67,0.00,,---,82.22,VWS V14.01,2013-05-31 02:37:00,
2013-05-30 22:39:00,68.9,57.5,29.97,NE,45,0.0,0.0,67,0.00,,---,82.22,VWS V14.01,2013-05-31 02:39:00,
2013-05-30 22:40:00,68.9,57.5,29.97,NE,45,0.0,0.0,67,0.00,,---,82.22,VWS V14.01,2013-05-31 02:40:00,
2013-05-30 22:41:00,68.5,58.0,29.97,NE,45,0.0,0.0,69,0.00,,---,82.22,VWS V14.01,2013-05-31 02:41:00,
2013-05-30 22:42:00,68.5,58.0,29.97,NE,45,0.0,0.0,69,0.00,,---,82.22,VWS V14.01,2013-05-31 02:42:00,
2013-05-30 22:43:00,68.5,58.0,29.97,NE,45,0.0,0.0,69,0.00,,---,82.22,VWS V14.01,2013-05-31 02:43:00,
2013-05-30 22:44:00,68.2,58.0,29.97,NE,45,0.0,0.0,70,0.00,,---,82.22,VWS V14.01,2013-05-31 02:44:00,
2013-05-30 22:45:00,68.5,58.0,29.97,NE,45,0.0,0.0,69,0.00,,---,82.22,VWS V14.01,2013-05-31 02:45:00,
2013-05-30 22:46:00,68.2,58.0,29.97,NE,45,0.0,0.0,70,0.00,,---,82.22,VWS V14.01,2013-05-31 02:46:00,
2013-05-30 22:48:00,68.5,58.0,29.97,NE,45,0.0,0.0,69,0.00,,---,82.22,VWS V14.01,2013-05-31 02:48:00,
2013-05-30 22:49:00,68.4,58.2,29.97,NE,45,0.0,0.0,70,0.00,,---,82.22,VWS V14.01,2013-05-31 02:49:00,
2013-05-30 22:50:00,68.2,58.0,29.97,NE,45,0.0,0.0,70,0.00,,---,82.22,VWS V14.01,2013-05-31 02:50:00,
2013-05-30 22:51:00,68.2,58.0,29.97,NE,45,0.0,0.0,70,0.00,,---,82.22,VWS V14.01,2013-05-31 02:51:00,
2013-05-30 22:52:00,68.2,58.0,29.97,NE,45,0.0,0.0,70,0.00,,---,82.22,VWS V14.01,2013-05-31 02:52:00,
2013-05-30 22:53:00,68.2,58.0,29.97,NE,45,0.0,0.0,70,0.00,,---,82.22,VWS V14.01,2013-05-31 02:53:00,
2013-05-30 22:54:00,68.2,58.0,29.97,NE,45,0.0,0.0,70,0.00,,---,82.22,VWS V14.01,2013-05-31 02:54:00,
2013-05-30 22:55:00,68.2,58.0,29.97,NE,45,0.0,0.0,70,0.00,,---,82.22,VWS V14.01,2013-05-31 02:55:00,
2013-05-30 22:57:00,68.2,58.0,29.97,NE,45,0.0,0.0,70,0.00,,---,82.22,VWS V14.01,2013-05-31 02:57:00,
2013-05-30 22:58:00,68.2,58.0,29.97,NE,45,0.0,0.0,70,0.00,,---,82.22,VWS V14.01,2013-05-31 02:58:00,
2013-05-30 22:59:00,68.2,58.0,29.97,NE,45,0.0,0.0,70,0.00,,---,82.22,VWS V14.01,2013-05-31 02:59:00,
2013-05-30 23:00:00,68.2,58.0,29.97,NE,45,0.0,0.0,70,0.00,,---,82.22,VWS V14.01,2013-05-31 03:00:00,
2013-05-30 23:01:00,68.2,58.0,29.97,NE,45,0.0,0.0,70,0.00,,---,82.22,VWS V14.01,2013-05-31 03:01:00,
2013-05-30 23:02:00,67.8,58.9,29.97,NE,45,0.0,0.0,73,0.00,,---,82.22,VWS V14.01,2013-05-31 03:02:00,
2013-05-30 23:05:00,67.6,59.4,29.97,NE,45,0.0,0.0,75,0.00,,---,82.22,VWS V14.01,2013-05-31 03:05:00,
2013-05-30 23:07:00,68.2,58.0,29.97,NE,45,0.0,0.0,70,0.00,,---,82.22,VWS V14.01,2013-05-31 03:07:00,
2013-05-30 23:08:00,67.5,59.3,29.97,NE,45,0.0,0.0,75,0.00,,---,82.22,VWS V14.01,2013-05-31 03:08:00,
2013-05-30 23:10:00,67.8,58.9,29.97,NE,45,0.0,0.0,73,0.00,,---,82.22,VWS V14.01,2013-05-31 03:10:00,
2013-05-30 23:11:00,67.5,59.3,29.97,NE,45,0.0,0.0,75,0.00,,---,82.22,VWS V14.01,2013-05-31 03:11:00,
2013-05-30 23:12:00,67.6,59.4,29.97,NE,45,0.0,0.0,75,0.00,,---,82.22,VWS V14.01,2013-05-31 03:12:00,
2013-05-30 23:13:00,67.5,59.6,29.97,NE,45,0.0,0.0,76,0.00,,---,82.22,VWS V14.01,2013-05-31 03:13:00,
2013-05-30 23:14:00,67.6,59.4,29.97,NE,45,0.0,0.0,75,0.00,,---,82.22,VWS V14.01,2013-05-31 03:14:00,
2013-05-30 23:15:00,67.3,59.5,29.97,NE,45,0.0,0.0,76,0.00,,---,82.22,VWS V14.01,2013-05-31 03:15:00,
2013-05-30 23:16:00,67.5,59.3,29.97,NE,45,0.0,0.0,75,0.00,,---,82.22,VWS V14.01,2013-05-31 03:16:00,
2013-05-30 23:17:00,67.3,59.5,29.97,NE,45,0.0,0.0,76,0.00,,---,82.22,VWS V14.01,2013-05-31 03:17:00,
2013-05-30 23:18:00,67.3,59.5,29.97,NE,45,0.0,0.0,76,0.00,,---,82.22,VWS V14.01,2013-05-31 03:18:00,
2013-05-30 23:19:00,67.5,59.3,29.97,NE,45,0.0,0.0,75,0.00,,---,82.22,VWS V14.01,2013-05-31 03:19:00,
2013-05-30 23:20:00,67.1,59.7,29.97,NE,45,0.0,0.0,77,0.00,,---,82.22,VWS V14.01,2013-05-31 03:20:00,
2013-05-30 23:21:00,67.1,59.7,29.97,NE,45,0.0,0.0,77,0.00,,---,82.22,VWS V14.01,2013-05-31 03:21:00,
2013-05-30 23:22:00,67.3,59.5,29.97,NE,45,0.0,0.0,76,0.00,,---,82.22,VWS V14.01,2013-05-31 03:22:00,
2013-05-30 23:23:00,67.3,59.5,29.97,NE,45,0.0,0.0,76,0.00,,---,82.22,VWS V14.01,2013-05-31 03:23:00,
2013-05-30 23:24:00,67.1,60.0,29.97,NE,45,0.0,0.0,78,0.00,,---,82.22,VWS V14.01,2013-05-31 03:24:00,
2013-05-30 23:25:00,67.1,60.0,29.97,NE,45,0.0,0.0,78,0.00,,---,82.22,VWS V14.01,2013-05-31 03:25:00,
2013-05-30 23:26:00,67.3,59.5,29.97,NE,45,0.0,0.0,76,0.00,,---,82.22,VWS V14.01,2013-05-31 03:26:00,
2013-05-30 23:27:00,67.3,59.5,29.97,NE,45,0.0,0.0,76,0.00,,---,82.22,VWS V14.01,2013-05-31 03:27:00,
2013-05-30 23:28:00,67.1,59.7,29.97,NE,45,0.0,0.0,77,0.00,,---,82.22,VWS V14.01,2013-05-31 03:28:00,
2013-05-30 23:29:00,67.1,59.7,29.97,NE,45,0.0,0.0,77,0.00,,---,82.22,VWS V14.01,2013-05-31 03:29:00,
2013-05-30 23:30:00,66.9,60.2,29.97,NE,45,0.0,0.0,79,0.00,,---,82.22,VWS V14.01,2013-05-31 03:30:00,
2013-05-30 23:31:00,67.1,59.7,29.97,NE,45,0.0,0.0,77,0.00,,---,82.22,VWS V14.01,2013-05-31 03:31:00,
2013-05-30 23:32:00,67.1,60.0,29.97,NE,45,0.0,0.0,78,0.00,,---,82.22,VWS V14.01,2013-05-31 03:32:00,
2013-05-30 23:33:00,67.1,60.0,29.97,NE,45,0.0,0.0,78,0.00,,---,82.22,VWS V14.01,2013-05-31 03:33:00,
2013-05-30 23:34:00,66.9,60.2,29.97,NE,45,0.0,0.0,79,0.00,,---,82.22,VWS V14.01,2013-05-31 03:34:00,
2013-05-30 23:35:00,66.7,60.4,29.97,NE,45,0.0,0.0,80,0.00,,---,82.22,VWS V14.01,2013-05-31 03:35:00,
2013-05-30 23:36:00,66.9,59.8,29.97,NE,45,0.0,0.0,78,0.00,,---,82.22,VWS V14.01,2013-05-31 03:36:00,
2013-05-30 23:37:00,66.7,60.4,29.97,NE,45,0.0,0.0,80,0.00,,---,82.22,VWS V14.01,2013-05-31 03:37:00,
2013-05-30 23:38:00,66.9,60.2,29.97,NE,45,0.0,0.0,79,0.00,,---,82.22,VWS V14.01,2013-05-31 03:38:00,
2013-05-30 23:39:00,66.7,60.4,29.97,NE,45,0.0,0.0,80,0.00,,---,82.22,VWS V14.01,2013-05-31 03:39:00,
2013-05-30 23:40:00,66.7,60.4,29.97,NE,45,0.0,0.0,80,0.00,,---,82.22,VWS V14.01,2013-05-31 03:40:00,
2013-05-30 23:41:00,66.7,60.4,29.97,NE,45,0.0,0.0,80,0.00,,---,82.22,VWS V14.01,2013-05-31 03:41:00,
2013-05-30 23:42:00,66.9,60.2,29.97,NE,45,0.0,0.0,79,0.00,,---,82.22,VWS V14.01,2013-05-31 03:42:00,
2013-05-30 23:43:00,66.7,60.4,29.97,NE,45,0.0,0.0,80,0.00,,---,82.22,VWS V14.01,2013-05-31 03:43:00,
2013-05-30 23:44:00,66.6,60.2,29.97,NE,45,0.0,0.0,80,0.00,,---,82.22,VWS V14.01,2013-05-31 03:44:00,
2013-05-30 23:45:00,66.7,60.4,29.97,NE,45,0.0,0.0,80,0.00,,---,82.22,VWS V14.01,2013-05-31 03:45:00,
2013-05-30 23:46:00,66.6,60.6,29.97,NE,45,0.0,0.0,81,0.00,,---,82.22,VWS V14.01,2013-05-31 03:46:00,
2013-05-30 23:47:00,66.6,60.6,29.97,NE,45,0.0,0.0,81,0.00,,---,82.22,VWS V14.01,2013-05-31 03:47:00,
2013-05-30 23:48:00,66.7,60.4,29.97,NE,45,0.0,0.0,80,0.00,,---,82.22,VWS V14.01,2013-05-31 03:48:00,
2013-05-30 23:49:00,66.7,60.4,29.97,NE,45,0.0,0.0,80,0.00,,---,82.22,VWS V14.01,2013-05-31 03:49:00,
2013-05-30 23:50:00,66.4,60.4,29.97,NE,45,0.0,0.0,81,0.00,,---,82.22,VWS V14.01,2013-05-31 03:50:00,
2013-05-30 23:51:00,66.6,60.2,29.97,NE,45,0.0,0.0,80,0.00,,---,82.22,VWS V14.01,2013-05-31 03:51:00,
2013-05-30 23:52:00,66.4,60.4,29.97,NE,45,0.0,0.0,81,0.00,,---,0.00,VWS V14.01,2013-05-31 03:52:00,
2013-05-30 23:53:00,66.6,60.2,29.97,NE,45,0.0,0.0,80,0.00,,---,82.22,VWS V14.01,2013-05-31 03:53:00,
2013-05-30 23:54:00,66.6,60.6,29.97,NE,45,0.0,0.0,81,0.00,,---,82.22,VWS V14.01,2013-05-31 03:54:00,
2013-05-30 23:55:00,66.4,60.4,29.97,NE,45,0.0,0.0,81,0.00,,---,0.00,VWS V14.01,2013-05-31 03:55:00,
2013-05-30 23:56:00,66.4,60.4,29.97,NE,45,0.0,0.0,81,0.00,,---,0.00,VWS V14.01,2013-05-31 03:56:00,
2013-05-30 23:57:00,66.2,60.5,29.97,NE,45,0.0,0.0,82,0.00,,---,0.00,VWS V14.01,2013-05-31 03:57:00,
2013-05-30 23:58:00,66.2,60.5,29.97,NE,45,0.0,0.0,82,0.00,,---,0.00,VWS V14.01,2013-05-31 03:58:00,
2013-05-30 23:59:00,66.4,60.4,29.97,NE,45,0.0,0.0,81,0.00,,---,82.22,VWS V14.01,2013-05-31 03:59:00,